Time,TemperatureF,DewpointF,PressureIn,WindDirection,WindDirectionDegrees,WindSpeedMPH,WindSpeedGustMPH,Humidity,HourlyPrecipIn,Conditions,Clouds,dailyrainin,SoftwareType,DateUTC
2013-02-09 00:14:00,32.6,23.0,29.93,WNW,286,7.0,16.0,67,0.00,,,0.00,weatherlink.com 1.10,2013-02-09 05:14:00,
2013-02-09 00:29:00,32.4,23.0,29.94,WNW,301,14.0,19.0,67,0.00,,,0.00,weatherlink.com 1.10,2013-02-09 05:29:00,
2013-02-09 00:44:00,32.4,22.0,29.94,WNW,303,11.0,20.0,66,0.00,,,0.00,weatherlink.com 1.10,2013-02-09 05:44:00,
2013-02-09 00:59:00,32.1,22.0,29.95,WNW,284,11.0,16.0,66,0.00,,,0.00,weatherlink.com 1.10,2013-02-09 05:59:00,
2013-02-09 01:14:00,31.8,22.0,29.95,WNW,289,12.0,23.0,66,0.00,,,0.00,weatherlink.com 1.10,2013-02-09 06:14:00,
2013-02-09 01:29:00,31.6,22.0,29.96,WNW,302,7.0,21.0,67,0.00,,,0.00,weatherlink.com 1.10,2013-02-09 06:29:00,
2013-02-09 01:44:00,31.4,22.0,29.96,WSW,250,4.0,14.0,67,0.00,,,0.00,weatherlink.com 1.10,2013-02-09 06:44:00,
2013-02-09 01:59:00,31.3,22.0,29.97,WNW,292,5.0,14.0,68,0.00,,,0.00,weatherlink.com 1.10,2013-02-09 06:59:00,
2013-02-09 02:14:00,31.1,22.0,29.97,West,279,7.0,14.0,68,0.00,,,0.00,weatherlink.com 1.10,2013-02-09 07:14:00,
2013-02-09 02:29:00,31.0,22.0,29.98,West,279,6.0,12.0,69,0.00,,,0.00,weatherlink.com 1.10,2013-02-09 07:29:00,
2013-02-09 02:44:00,30.9,22.0,29.99,WNW,297,1.0,10.0,69,0.00,,,0.00,weatherlink.com 1.10,2013-02-09 07:44:00,
2013-02-09 02:59:00,30.6,22.0,30.00,NW,304,9.0,13.0,69,0.00,,,0.00,weatherlink.com 1.10,2013-02-09 07:59:00,
2013-02-09 03:14:00,30.4,20.0,30.00,West,281,7.0,32.0,66,0.00,,,0.00,weatherlink.com 1.10,2013-02-09 08:14:00,
2013-02-09 03:30:00,30.0,19.0,30.01,North,360,2.0,23.0,64,0.00,,,0.00,weatherlink.com 1.10,2013-02-09 08:30:00,
2013-02-09 03:45:00,29.7,19.0,30.02,WNW,287,7.0,17.0,64,0.00,,,0.00,weatherlink.com 1.10,2013-02-09 08:45:00,
2013-02-09 04:00:00,29.5,19.0,30.04,WSW,252,2.0,14.0,66,0.00,,,0.00,weatherlink.com 1.10,2013-02-09 09:00:00,
2013-02-09 04:15:00,29.3,19.0,30.05,NW,304,4.0,14.0,66,0.00,,,0.00,weatherlink.com 1.10,2013-02-09 09:15:00,
2013-02-09 04:30:00,29.2,19.0,30.06,WNW,294,9.0,15.0,65,0.00,,,0.00,weatherlink.com 1.10,2013-02-09 09:30:00,
2013-02-09 04:45:00,29.2,19.0,30.07,WNW,297,8.0,21.0,65,0.00,,,0.00,weatherlink.com 1.10,2013-02-09 09:45:00,
2013-02-09 05:00:00,29.1,19.0,30.06,WNW,302,8.0,20.0,66,0.00,,,0.00,weatherlink.com 1.10,2013-02-09 10:00:00,
2013-02-09 05:15:00,28.9,19.0,30.07,WNW,285,10.0,20.0,66,0.00,,,0.00,weatherlink.com 1.10,2013-02-09 10:15:00,
2013-02-09 05:30:00,28.8,18.0,30.07,WNW,288,14.0,23.0,65,0.00,,,0.00,weatherlink.com 1.10,2013-02-09 10:30:00,
2013-02-09 05:45:00,28.3,18.0,30.08,WNW,290,18.0,20.0,65,0.00,,,0.00,weatherlink.com 1.10,2013-02-09 10:45:00,
2013-02-09 06:00:00,27.9,17.0,30.09,WNW,288,9.0,25.0,65,0.00,,,0.00,weatherlink.com 1.10,2013-02-09 11:00:00,
2013-02-09 06:15:00,27.6,17.0,30.10,WNW,290,13.0,26.0,65,0.00,,,0.00,weatherlink.com 1.10,2013-02-09 11:15:00,
2013-02-09 06:30:00,27.4,17.0,30.11,NW,312,10.0,22.0,65,0.00,,,0.00,weatherlink.com 1.10,2013-02-09 11:30:00,
2013-02-09 06:45:00,27.3,17.0,30.12,WNW,288,5.0,25.0,65,0.00,,,0.00,weatherlink.com 1.10,2013-02-09 11:45:00,
2013-02-09 07:00:00,27.2,17.0,30.14,NW,305,11.0,20.0,66,0.00,,,0.00,weatherlink.com 1.10,2013-02-09 12:00:00,
2013-02-09 07:15:00,27.1,17.0,30.15,West,280,4.0,15.0,67,0.00,,,0.00,weatherlink.com 1.10,2013-02-09 12:15:00,
2013-02-09 07:30:00,27.1,17.0,30.16,WNW,288,12.0,23.0,67,0.00,,,0.00,weatherlink.com 1.10,2013-02-09 12:30:00,
2013-02-09 07:45:00,27.1,17.0,30.16,NW,316,16.0,23.0,65,0.00,,,0.00,weatherlink.com 1.10,2013-02-09 12:45:00,
2013-02-09 08:01:00,27.1,17.0,30.17,WNW,284,5.0,23.0,66,0.00,,,0.00,weatherlink.com 1.10,2013-02-09 13:01:00,
2013-02-09 08:15:00,27.8,17.0,30.18,WNW,302,8.0,21.0,65,0.00,,,0.00,weatherlink.com 1.10,2013-02-09 13:15:00,
2013-02-09 08:30:00,29.5,18.0,30.19,West,274,8.0,15.0,62,0.00,,,0.00,weatherlink.com 1.10,2013-02-09 13:30:00,
2013-02-09 08:45:00,30.1,18.0,30.19,West,275,6.0,20.0,62,0.00,,,0.00,weatherlink.com 1.10,2013-02-09 13:45:00,
2013-02-09 09:01:00,30.7,18.0,30.20,WNW,297,10.0,21.0,60,0.00,,,0.00,weatherlink.com 1.10,2013-02-09 14:01:00,
2013-02-09 09:16:00,31.2,18.0,30.20,NNW,328,7.0,22.0,59,0.00,,,0.00,weatherlink.com 1.10,2013-02-09 14:16:00,
2013-02-09 09:30:00,30.8,18.0,30.19,West,259,12.0,23.0,60,0.00,,,0.00,weatherlink.com 1.10,2013-02-09 14:30:00,
2013-02-09 09:46:00,31.1,18.0,30.19,NNW,330,13.0,23.0,59,0.00,,,0.00,weatherlink.com 1.10,2013-02-09 14:46:00,
2013-02-09 10:01:00,31.2,18.0,30.19,NW,304,10.0,27.0,58,0.00,,,0.00,weatherlink.com 1.10,2013-02-09 15:01:00,
2013-02-09 10:16:00,31.7,18.0,30.18,WNW,293,17.0,30.0,57,0.00,,,0.00,weatherlink.com 1.10,2013-02-09 15:16:00,
2013-02-09 10:31:00,32.6,19.0,30.20,WNW,283,8.0,23.0,57,0.00,,,0.00,weatherlink.com 1.10,2013-02-09 15:31:00,
2013-02-09 10:46:00,32.8,19.0,30.21,West,262,13.0,27.0,56,0.00,,,0.00,weatherlink.com 1.10,2013-02-09 15:46:00,
2013-02-09 11:01:00,33.7,19.0,30.22,SSW,196,2.0,19.0,55,0.00,,,0.00,weatherlink.com 1.10,2013-02-09 16:01:00,
2013-02-09 11:16:00,34.5,19.0,30.20,West,279,16.0,22.0,54,0.00,,,0.00,weatherlink.com 1.10,2013-02-09 16:16:00,
2013-02-09 11:31:00,34.5,19.0,30.20,West,265,19.0,26.0,53,0.00,,,0.00,weatherlink.com 1.10,2013-02-09 16:31:00,
2013-02-09 11:46:00,35.3,19.0,30.22,NNW,338,3.0,21.0,51,0.00,,,0.00,weatherlink.com 1.10,2013-02-09 16:46:00,
2013-02-09 12:02:00,35.2,19.0,30.22,WNW,292,8.0,21.0,51,0.00,,,0.00,weatherlink.com 1.10,2013-02-09 17:02:00,
2013-02-09 12:17:00,36.2,19.0,30.21,WNW,300,12.0,18.0,50,0.00,,,0.00,weatherlink.com 1.10,2013-02-09 17:17:00,
2013-02-09 12:32:00,36.5,18.0,30.21,NW,304,13.0,22.0,47,0.00,,,0.00,weatherlink.com 1.10,2013-02-09 17:32:00,
2013-02-09 12:47:00,37.4,19.0,30.20,WNW,292,6.0,19.0,48,0.00,,,0.00,weatherlink.com 1.10,2013-02-09 17:47:00,
2013-02-09 13:02:00,36.6,17.0,30.20,WNW,299,17.0,22.0,45,0.00,,,0.00,weatherlink.com 1.10,2013-02-09 18:02:00,
2013-02-09 13:17:00,36.7,18.0,30.20,WNW,300,8.0,20.0,46,0.00,,,0.00,weatherlink.com 1.10,2013-02-09 18:17:00,
2013-02-09 13:32:00,37.3,18.0,30.20,WNW,296,13.0,19.0,45,0.00,,,0.00,weatherlink.com 1.10,2013-02-09 18:32:00,
2013-02-09 13:47:00,37.6,17.0,30.21,NNE,26,3.0,16.0,43,0.00,,,0.00,weatherlink.com 1.10,2013-02-09 18:47:00,
2013-02-09 14:02:00,38.1,17.0,30.20,WNW,290,4.0,14.0,43,0.00,,,0.00,weatherlink.com 1.10,2013-02-09 19:02:00,
2013-02-09 14:17:00,38.6,17.0,30.21,WNW,283,11.0,18.0,41,0.00,,,0.00,weatherlink.com 1.10,2013-02-09 19:17:00,
2013-02-09 14:32:00,39.2,18.0,30.21,WNW,291,3.0,10.0,42,0.00,,,0.00,weatherlink.com 1.10,2013-02-09 19:32:00,
2013-02-09 14:47:00,38.8,16.0,30.21,West,273,6.0,17.0,40,0.00,,,0.00,weatherlink.com 1.10,2013-02-09 19:47:00,
2013-02-09 15:02:00,37.9,17.0,30.22,WNW,293,3.0,11.0,42,0.00,,,0.00,weatherlink.com 1.10,2013-02-09 20:02:00,
2013-02-09 15:16:00,37.8,16.0,30.22,NNE,30,1.0,12.0,41,0.00,,,0.00,weatherlink.com 1.10,2013-02-09 20:16:00,
2013-02-09 15:32:00,38.1,16.0,30.23,West,269,0.0,8.0,40,0.00,,,0.00,weatherlink.com 1.10,2013-02-09 20:32:00,
2013-02-09 15:47:00,37.7,15.0,30.23,WNW,287,4.0,15.0,40,0.00,,,0.00,weatherlink.com 1.10,2013-02-09 20:47:00,
2013-02-09 16:02:00,37.7,14.0,30.23,NW,316,9.0,18.0,38,0.00,,,0.00,weatherlink.com 1.10,2013-02-09 21:02:00,
2013-02-09 16:17:00,37.3,14.0,30.23,SSW,208,4.0,13.0,39,0.00,,,0.00,weatherlink.com 1.10,2013-02-09 21:17:00,
2013-02-09 16:32:00,37.1,15.0,30.23,WNW,293,4.0,7.0,40,0.00,,,0.00,weatherlink.com 1.10,2013-02-09 21:32:00,
2013-02-09 16:47:00,37.0,15.0,30.25,WNW,292,9.0,12.0,40,0.00,,,0.00,weatherlink.com 1.10,2013-02-09 21:47:00,
2013-02-09 17:02:00,36.4,15.0,30.25,WNW,294,3.0,8.0,41,0.00,,,0.00,weatherlink.com 1.10,2013-02-09 22:02:00,
2013-02-09 17:17:00,36.0,15.0,30.26,WNW,296,7.0,11.0,43,0.00,,,0.00,weatherlink.com 1.10,2013-02-09 22:17:00,
2013-02-09 17:47:00,34.5,16.0,30.27,WNW,289,5.0,9.0,46,0.00,,,0.00,weatherlink.com 1.10,2013-02-09 22:47:00,
2013-02-09 18:02:00,34.1,15.0,30.28,WNW,290,4.0,8.0,46,0.00,,,0.00,weatherlink.com 1.10,2013-02-09 23:02:00,
2013-02-09 18:17:00,33.3,15.0,30.28,West,275,4.0,7.0,47,0.00,,,0.00,weatherlink.com 1.10,2013-02-09 23:17:00,
2013-02-09 18:32:00,32.7,15.0,30.28,WNW,287,2.0,7.0,48,0.00,,,0.00,weatherlink.com 1.10,2013-02-09 23:32:00,
2013-02-09 18:47:00,32.2,15.0,30.29,WNW,300,0.0,3.0,50,0.00,,,0.00,weatherlink.com 1.10,2013-02-09 23:47:00,
2013-02-09 19:02:00,31.5,15.0,30.30,West,275,0.0,2.0,50,0.00,,,0.00,weatherlink.com 1.10,2013-02-10 00:02:00,
2013-02-09 19:17:00,30.7,15.0,30.30,West,275,0.0,0.0,53,0.00,,,0.00,weatherlink.com 1.10,2013-02-10 00:17:00,
2013-02-09 19:32:00,29.6,15.0,30.30,West,275,0.0,2.0,55,0.00,,,0.00,weatherlink.com 1.10,2013-02-10 00:32:00,
2013-02-09 19:48:00,28.2,15.0,30.30,West,275,0.0,1.0,59,0.00,,,0.00,weatherlink.com 1.10,2013-02-10 00:48:00,
2013-02-09 20:03:00,27.1,15.0,30.30,West,275,0.0,2.0,61,0.00,,,0.00,weatherlink.com 1.10,2013-02-10 01:03:00,
2013-02-09 20:17:00,26.5,15.0,30.31,WNW,291,1.0,2.0,63,0.00,,,0.00,weatherlink.com 1.10,2013-02-10 01:17:00,
2013-02-09 20:32:00,26.3,16.0,30.31,WNW,291,0.0,0.0,64,0.00,,,0.00,weatherlink.com 1.10,2013-02-10 01:32:00,
2013-02-09 20:47:00,25.9,16.0,30.31,WNW,291,0.0,2.0,65,0.00,,,0.00,weatherlink.com 1.10,2013-02-10 01:47:00,
2013-02-09 21:03:00,25.5,16.0,30.32,WNW,292,0.0,1.0,66,0.00,,,0.00,weatherlink.com 1.10,2013-02-10 02:03:00,
2013-02-09 21:18:00,25.2,15.0,30.32,WNW,292,0.0,0.0,66,0.00,,,0.00,weatherlink.com 1.10,2013-02-10 02:18:00,
2013-02-09 21:33:00,24.8,15.0,30.32,WNW,292,0.0,2.0,67,0.00,,,0.00,weatherlink.com 1.10,2013-02-10 02:33:00,
2013-02-09 21:48:00,24.5,15.0,30.33,WNW,292,0.0,2.0,67,0.00,,,0.00,weatherlink.com 1.10,2013-02-10 02:48:00,
2013-02-09 22:03:00,24.3,15.0,30.33,WNW,292,0.0,0.0,68,0.00,,,0.00,weatherlink.com 1.10,2013-02-10 03:03:00,
2013-02-09 22:18:00,24.0,15.0,30.34,WNW,292,0.0,2.0,69,0.00,,,0.00,weatherlink.com 1.10,2013-02-10 03:18:00,
2013-02-09 22:33:00,23.8,15.0,30.34,WNW,296,1.0,2.0,69,0.00,,,0.00,weatherlink.com 1.10,2013-02-10 03:33:00,
2013-02-09 22:48:00,24.4,15.0,30.34,WNW,296,2.0,4.0,68,0.00,,,0.00,weatherlink.com 1.10,2013-02-10 03:48:00,
2013-02-09 23:03:00,25.2,16.0,30.34,WNW,289,0.0,2.0,67,0.00,,,0.00,weatherlink.com 1.10,2013-02-10 04:03:00,
2013-02-09 23:18:00,24.8,15.0,30.34,WNW,289,0.0,2.0,67,0.00,,,0.00,weatherlink.com 1.10,2013-02-10 04:18:00,
2013-02-09 23:33:00,24.0,15.0,30.34,WNW,289,0.0,2.0,69,0.00,,,0.00,weatherlink.com 1.10,2013-02-10 04:33:00,
2013-02-09 23:48:00,23.6,15.0,30.35,WNW,289,1.0,2.0,69,0.00,,,0.00,weatherlink.com 1.10,2013-02-10 04:48:00,